Location: ???? ?????
(30.0052°N, 31.2891°E)
Time: 18:34:24
(UTC+00:00)

Iridium 16 - Pass Details

Date: 29 January 2023
Orbit: 766 x 768 km, 86.4° (Epoch: 19 March)

Event Time Altitude Azimuth Distance (km) Brightness Sun altitude
Rises 02:31:53 0° 149° (SSE) 3,220 9.2 -29.3°
Reaches altitude 10° 02:34:37 10° 135° (SE) 2,298 8.5 -28.7°
Maximum altitude 02:38:38 23° 84° (E) 1,570 7.8 -27.9°
Drops below altitude 10° 02:42:39 10° 32° (NNE) 2,308 8.3 -27.0°
Sets 02:45:23 0° 19° (NNE) 3,239 8.9 -26.4°
